Weather History for KM19 - February, 2013

Change the Weather History Date:

Sunday, February 3, 2013

  Actual Average (KJBR) Record (KJBR)
Temperature  
Mean Temperature 46 °F 39 °F  
Max Temperature 55 °F 48 °F 75 °F (1943)
Min Temperature 36 °F 30 °F 1 °F (1996)
Degree Days  
Heating Degree Days 20 26  
Month to date heating degree days 78  
Since 1 July heating degree days 2374  
Cooling Degree Days 0 0  
Month to date cooling degree days 0  
Year to date cooling degree days 0  
Moisture  
Dew Point 29 °F    
Average Humidity 57    
Maximum Humidity 80    
Minimum Humidity 28    
Precipitation  
Precipitation 0.00 in 0.13 in 2.55 in (1939)
Month to date precipitation 0.38  
Year to date precipitation 3.81  
Snow  
Snow 0.00 in 0.10 in 5.50 in (1905)
Month to date snowfall 0.2  
Since 1 July snowfall 3.0  
Snow Depth -    
Sea Level Pressure  
Sea Level Pressure 30.18 in    
Wind  
Wind Speed 12 mph (West)    
Max Wind Speed 26 mph    
Max Gust Speed 30 mph    
Visibility 10 miles    
Events      
T = Trace of Precipitation, MM = Missing Value Source: NWS Daily Summary

Daily Weather History Graph

Daily Weather History Graph

Search for Another Location

Airport or City:

Trip Planner

Search our weather history database for the weather conditions in past years. The results will help you decide how hot, cold, wet, or windy it might be!

Date:

Astronomy

Feb. 03, 2013 Rise Set
Actual Time 7:02 AM CST 5:34 PM CST
Civil Twilight 6:36 AM CST 6:01 PM CST
Nautical Twilight 6:05 AM CST 6:31 PM CST
Astronomical Twilight 5:35 AM CST 7:01 PM CST
Moon 12:30 AM CST (2/3) 11:13 AM CST (2/3)
Length of Visible Light 11h 25m
Length of Day
10h 31m
Waning Gibbous, 48% of the Moon is Illuminated
Feb 3
Waning Gibbous
Feb 10
New
Feb 17
First Quarter
Feb 25
Full
Mar 4
Last Quarter

Hourly Weather History & Observations

Time (CST) Temp. Windchill Dew Point Humidity Pressure Visibility Wind Dir Wind Speed Gust Speed Precip Events Conditions
12:56 AM 36.9 °F 30.1 °F 30.0 °F 76% 30.18 in 10.0 mi SW 9.2 mph - N/A   Clear
2:56 AM 37.9 °F 30.9 °F 30.0 °F 73% 30.14 in 10.0 mi SSW 10.4 mph - N/A   Clear
3:56 AM 41.9 °F 35.4 °F 31.1 °F 66% 30.15 in 10.0 mi West 11.5 mph - N/A   Clear
4:56 AM 37.9 °F 32.1 °F 31.1 °F 76% 30.17 in 10.0 mi WSW 8.1 mph - N/A   Clear
5:56 AM 37.9 °F 32.1 °F 30.0 °F 73% 30.19 in 10.0 mi WSW 8.1 mph - N/A   Clear
6:56 AM 41.0 °F 34.7 °F 30.0 °F 65% 30.19 in 10.0 mi West 10.4 mph - N/A   Clear
7:56 AM 45.0 °F 40.6 °F 31.1 °F 58% 30.22 in 10.0 mi West 8.1 mph - N/A   Clear
8:56 AM 47.8 °F - 31.1 °F 52% 30.22 in 10.0 mi NW 20.7 mph 27.6 mph N/A   Clear
9:56 AM 48.9 °F - 30.0 °F 48% 30.23 in 10.0 mi WNW 16.1 mph - N/A   Clear
10:56 AM 52.9 °F - 27.1 °F 37% 30.24 in 10.0 mi NW 20.7 mph 29.9 mph N/A   Clear
11:56 AM 54.0 °F - 26.1 °F 34% 30.23 in 10.0 mi NW 26.5 mph 29.9 mph N/A   Clear
12:56 PM 54.9 °F - 24.1 °F 30% 30.20 in 10.0 mi NNW 25.3 mph - N/A   Clear
1:56 PM 55.9 °F - 23.0 °F 28% 30.19 in 10.0 mi NNW 17.3 mph 27.6 mph N/A   Clear
2:56 PM 54.9 °F - 22.1 °F 28% 30.19 in 10.0 mi NNW 15.0 mph - N/A   Clear
3:56 PM 54.9 °F - 22.1 °F 28% 30.19 in 10.0 mi NNW 10.4 mph - N/A   Clear
4:56 PM 52.0 °F - 26.1 °F 37% 30.17 in 10.0 mi NW 8.1 mph - N/A   Clear
5:56 PM 43.9 °F 38.8 °F 32.9 °F 65% 30.17 in 10.0 mi East 9.2 mph - N/A   Clear
6:56 PM 45.0 °F 41.8 °F 29.1 °F 54% 30.17 in 10.0 mi SSE 5.8 mph - N/A   Clear
7:56 PM 39.9 °F 35.8 °F 30.0 °F 68% 30.16 in 10.0 mi SE 5.8 mph - N/A   Clear
8:56 PM 37.9 °F 33.5 °F 31.1 °F 76% 30.17 in 10.0 mi South 5.8 mph - N/A   Clear
9:56 PM 37.9 °F 30.5 °F 31.1 °F 76% 30.14 in 10.0 mi South 11.5 mph - N/A   Clear
10:56 PM 37.9 °F 31.5 °F 32.0 °F 79% 30.12 in 10.0 mi SE 9.2 mph - N/A   Clear
11:56 PM 36.9 °F 30.1 °F 31.1 °F 80% 30.10 in 10.0 mi SSE 9.2 mph - N/A   Clear